Weather History for Albany, GA

Change the Weather History Date:

Tuesday, August 14, 2012

  Actual Average Record
Temperature  
Mean Temperature 80 °F 82 °F  
Max Temperature 88 °F 92 °F 100 °F (1980)
Min Temperature 71 °F 72 °F 58 °F (1967)
Degree Days  
Heating Degree Days 0 0  
Month to date heating degree days 0 0  
Since 1 June heating degree days 0 0  
Since 1 July heating degree days 0 0  
Cooling Degree Days 15 17  
Month to date cooling degree days 226 238  
Year to date cooling degree days 2012 1684  
Since 1 June cooling degree days 1274 1244  
Growing Degree Days 29 (Base 50)    
Moisture  
Dew Point 73 °F    
Average Humidity 79    
Maximum Humidity 94    
Minimum Humidity 63    
Precipitation  
Precipitation 0.06 in - 1.30 in (2011)
Month to date precipitation 5.72  
Year to date precipitation 21.36  
Sea Level Pressure  
Sea Level Pressure 30.00 in    
Wind  
Wind Speed 5 mph (SW)    
Max Wind Speed 15 mph    
Max Gust Speed 18 mph    
Visibility 8 miles    
Events Rain , Thunderstorm    
T = Trace of Precipitation, MM = Missing Value Source: NWS Daily Summary

Daily Weather History Graph

Daily Weather History Graph

Search for Another Location

Airport:

Trip Planner

Search our weather history database for the weather conditions in past years. The results will help you decide how hot, cold, wet, or windy it might be!

Date:

Astronomy

Aug. 14, 2012 Rise Set
Actual Time 7:01 AM EDT 8:20 PM EDT
Civil Twilight 6:36 AM EDT 8:46 PM EDT
Nautical Twilight 6:05 AM EDT 9:16 PM EDT
Astronomical Twilight 5:33 AM EDT 9:48 PM EDT
Moon 4:04 AM EDT (8/14) 6:09 PM EDT (8/14)
Length of Visible Light 14h 10m
Length of Day
13h 18m
Waning Crescent, 10% of the Moon is Illuminated
Aug 14
Waning Crescent
Aug 17
New
Aug 24
First Quarter
Aug 31
Full
Sep 8
Last Quarter

Hourly Weather History & Observations

Time (EDT) Temp. Heat Index Dew Point Humidity Pressure Visibility Wind Dir Wind Speed Gust Speed Precip Events Conditions
12:53 AM 73.0 °F - 69.1 °F 87% 30.03 in 9.0 mi Calm Calm - N/A   Clear
1:53 AM 73.0 °F - 68.0 °F 84% 30.01 in 9.0 mi Calm Calm - N/A   Clear
2:53 AM 73.9 °F - 68.0 °F 82% 30.00 in 10.0 mi Calm Calm - N/A   Clear
3:53 AM 73.0 °F - 68.0 °F 84% 30.01 in 9.0 mi Calm Calm - N/A   Clear
4:53 AM 73.0 °F - 69.1 °F 87% 30.00 in 8.0 mi Calm Calm - N/A   Clear
5:53 AM 71.6 °F - 69.8 °F 94% 30.01 in 8.0 mi Calm Calm - N/A   Clear
6:53 AM 72.0 °F - 70.0 °F 93% 30.01 in 6.0 mi South 3.5 mph - N/A   Clear
7:53 AM 73.0 °F - 71.1 °F 93% 30.02 in 5.0 mi SSW 4.6 mph - N/A   Scattered Clouds
8:53 AM 75.9 °F - 73.9 °F 94% 30.03 in 7.0 mi SSW 4.6 mph - N/A   Scattered Clouds
9:39 AM 80.6 °F 86.2 °F 75.2 °F 84% 30.04 in 10.0 mi WSW 5.8 mph - N/A   Mostly Cloudy
9:53 AM 82.0 °F 89.4 °F 75.9 °F 82% 30.04 in 10.0 mi SW 8.1 mph - N/A   Mostly Cloudy
10:53 AM 84.9 °F 94.1 °F 75.9 °F 74% 30.03 in 10.0 mi SW 6.9 mph - N/A   Mostly Cloudy
11:53 AM 87.1 °F 95.4 °F 73.9 °F 65% 30.02 in 10.0 mi WSW 6.9 mph - N/A   Mostly Cloudy
12:05 PM 86.0 °F 93.4 °F 73.4 °F 66% 30.02 in 10.0 mi West 6.9 mph - N/A Thunderstorm Mostly Cloudy
12:26 PM 84.2 °F 92.3 °F 75.2 °F 74% 30.02 in 8.0 mi WSW 5.8 mph - 0.00 in Rain , Thunderstorm Thunderstorms and Rain
12:47 PM 78.8 °F - 75.2 °F 89% 30.01 in 1.8 mi Calm Calm - 0.06 in Rain , Thunderstorm Thunderstorms and Rain
12:53 PM 79.0 °F - 75.9 °F 90% 30.02 in 3.0 mi West 6.9 mph - 0.06 in Rain , Thunderstorm Thunderstorms and Rain
12:59 PM 78.8 °F - 75.2 °F 89% 30.02 in 9.0 mi WNW 4.6 mph - 0.00 in Rain Light Rain
1:01 PM 78.8 °F - 75.2 °F 89% 30.02 in 4.0 mi West 3.5 mph - 0.00 in Rain Light Rain
1:02 PM 78.8 °F - 75.2 °F 89% 30.02 in 6.0 mi West 3.5 mph - 0.00 in Rain Light Rain
1:53 PM 79.0 °F - 73.0 °F 82% 30.01 in 10.0 mi WSW 6.9 mph - 0.00 in   Scattered Clouds
2:53 PM 81.0 °F 85.8 °F 73.0 °F 77% 29.99 in 10.0 mi SW 10.4 mph - N/A   Scattered Clouds
3:53 PM 82.9 °F 87.5 °F 71.1 °F 67% 29.99 in 10.0 mi SSW 9.2 mph - N/A   Clear
4:53 PM 82.9 °F 88.0 °F 72.0 °F 69% 29.96 in 10.0 mi SW 8.1 mph - N/A   Clear
5:53 PM 82.0 °F 86.3 °F 71.1 °F 69% 29.96 in 10.0 mi SW 8.1 mph - N/A   Clear
6:53 PM 80.1 °F 83.6 °F 71.1 °F 74% 29.95 in 10.0 mi South 4.6 mph - N/A   Clear
7:53 PM 79.0 °F - 72.0 °F 79% 29.96 in 10.0 mi Calm Calm - N/A   Clear
8:53 PM 78.1 °F - 72.0 °F 81% 29.98 in 10.0 mi SW 4.6 mph - N/A   Clear
9:53 PM 78.1 °F - 73.0 °F 84% 30.00 in 10.0 mi SSW 6.9 mph - N/A   Partly Cloudy
10:53 PM 77.0 °F - 73.0 °F 88% 29.99 in 10.0 mi SW 3.5 mph - N/A   Clear
11:53 PM 75.9 °F - 73.0 °F 91% 29.98 in 10.0 mi SW 3.5 mph - N/A   Partly Cloudy